Location: Passo di Treia
(43.2833°N, 13.3333°E)
Time: 02:46:18
(UTC+00:00)

Cosmos 1943 Rocket - Pass Details

Date: 09 December 2019
Orbit: 812 x 843 km, 71.0° (Epoch: 25 January)

Event Time Altitude Azimuth Distance (km) Brightness Sun altitude
Rises 16:33:05 0° 347° (NNW) 3,407 5.3 -11.0°
Reaches altitude 10° 16:37:12 10° 16° (NNE) 2,463 4.3 -11.7°
Maximum altitude 16:39:34 13° 41° (NE) 2,276 3.9 -12.1°
Enters shadow 16:39:42 13° 43° (NE) 2,276 3.9 -12.1°
